Wetterdaten: Sonntag, 04.03.2007
Datum Zeit Temp. I. Temp. A. Feuchte A. Luftdruck Regen Wind
04.03.2007 00:02 20,8 C 5,8 C 84 % 1010 hPa 0,3 l/m 40,7 km/h (6 Bft)
04.03.2007 00:05 20,8 C 5,7 C 84 % 1010 hPa 0,0 l/m 48,0 km/h (6 Bft)
04.03.2007 00:08 20,8 C 5,6 C 85 % 1010 hPa 0,0 l/m 38,4 km/h (5 Bft)
04.03.2007 00:11 20,8 C 5,5 C 86 % 1010 hPa 0,0 l/m 25,8 km/h (4 Bft)
04.03.2007 00:14 20,8 C 5,5 C 86 % 1010 hPa 0,0 l/m 28,5 km/h (4 Bft)
04.03.2007 00:17 20,8 C 5,3 C 87 % 1010 hPa 0,0 l/m 26,3 km/h (4 Bft)
04.03.2007 00:20 20,8 C 5,2 C 88 % 1010 hPa 0,0 l/m 20,0 km/h (4 Bft)
04.03.2007 00:23 20,8 C 5,2 C 88 % 1010 hPa 0,0 l/m 20,0 km/h (4 Bft)
04.03.2007 00:26 20,8 C 5,1 C 88 % 1011 hPa 0,3 l/m 21,8 km/h (4 Bft)
04.03.2007 00:29 20,8 C 5,1 C 89 % 1011 hPa 0,0 l/m 17,8 km/h (3 Bft)
04.03.2007 00:32 20,8 C 5,1 C 89 % 1011 hPa 0,0 l/m 22,1 km/h (4 Bft)
04.03.2007 00:35 20,8 C 5,1 C 89 % 1011 hPa 0,0 l/m 25,4 km/h (4 Bft)
04.03.2007 00:38 20,8 C 4,9 C 89 % 1011 hPa 0,0 l/m 25,3 km/h (4 Bft)
04.03.2007 00:41 20,8 C 4,9 C 89 % 1011 hPa 0,0 l/m 25,6 km/h (4 Bft)
04.03.2007 00:44 20,8 C 4,9 C 89 % 1011 hPa 0,0 l/m 25,4 km/h (4 Bft)
04.03.2007 00:47 20,8 C 5,1 C 88 % 1011 hPa 0,0 l/m 32,9 km/h (5 Bft)
04.03.2007 00:50 20,8 C 5,2 C 85 % 1011 hPa 0,0 l/m 46,1 km/h (6 Bft)
04.03.2007 00:53 20,7 C 5,4 C 82 % 1011 hPa 0,0 l/m 50,1 km/h (7 Bft)
04.03.2007 00:56 20,7 C 5,4 C 79 % 1011 hPa 0,0 l/m 43,7 km/h (6 Bft)
04.03.2007 00:59 20,7 C 5,4 C 79 % 1011 hPa 0,0 l/m 52,0 km/h (7 Bft)
04.03.2007 01:02 20,7 C 5,5 C 75 % 1011 hPa 0,0 l/m 39,2 km/h (6 Bft)
04.03.2007 01:05 20,7 C 5,4 C 76 % 1011 hPa 0,0 l/m 35,1 km/h (5 Bft)
04.03.2007 01:08 20,7 C 5,3 C 76 % 1011 hPa 0,0 l/m 39,2 km/h (6 Bft)
04.03.2007 01:11 20,7 C 5,3 C 75 % 1012 hPa 0,0 l/m 45,0 km/h (6 Bft)
04.03.2007 01:14 20,7 C 5,2 C 73 % 1012 hPa 0,0 l/m 44,3 km/h (6 Bft)
04.03.2007 01:17 20,7 C 5,2 C 73 % 1012 hPa 0,0 l/m 42,7 km/h (6 Bft)
04.03.2007 01:20 20,7 C 5,1 C 74 % 1012 hPa 0,0 l/m 42,7 km/h (6 Bft)
04.03.2007 01:23 20,7 C 5,1 C 73 % 1012 hPa 0,0 l/m 38,6 km/h (5 Bft)
04.03.2007 01:26 20,7 C 4,9 C 74 % 1012 hPa 0,0 l/m 37,9 km/h (5 Bft)
04.03.2007 01:29 20,7 C 4,9 C 75 % 1012 hPa 0,0 l/m 36,4 km/h (5 Bft)
04.03.2007 01:32 20,7 C 4,7 C 74 % 1012 hPa 0,0 l/m 33,5 km/h (5 Bft)
04.03.2007 01:35 20,7 C 4,7 C 74 % 1012 hPa 0,0 l/m 36,5 km/h (5 Bft)
04.03.2007 01:38 20,7 C 4,7 C 74 % 1012 hPa 0,0 l/m 37,7 km/h (5 Bft)
04.03.2007 01:41 20,7 C 4,7 C 73 % 1012 hPa 0,0 l/m 40,7 km/h (6 Bft)
04.03.2007 01:44 20,7 C 4,7 C 73 % 1012 hPa 0,0 l/m 34,5 km/h (5 Bft)
04.03.2007 01:47 20,7 C 4,5 C 74 % 1012 hPa 0,0 l/m 35,4 km/h (5 Bft)
04.03.2007 01:50 20,7 C 4,5 C 74 % 1012 hPa 0,0 l/m 33,5 km/h (5 Bft)
04.03.2007 01:53 20,7 C 4,5 C 74 % 1012 hPa 0,0 l/m 35,9 km/h (5 Bft)
04.03.2007 01:56 20,7 C 4,5 C 74 % 1012 hPa 0,0 l/m 40,4 km/h (6 Bft)
04.03.2007 01:59 20,7 C 4,3 C 75 % 1012 hPa 0,0 l/m 34,8 km/h (5 Bft)
04.03.2007 02:02 20,7 C 4,3 C 75 % 1012 hPa 0,0 l/m 35,6 km/h (5 Bft)
04.03.2007 02:05 20,7 C 4,3 C 75 % 1012 hPa 0,0 l/m 41,5 km/h (6 Bft)
04.03.2007 02:08 20,7 C 4,3 C 75 % 1012 hPa 0,0 l/m 39,8 km/h (6 Bft)
04.03.2007 02:11 20,7 C 4,3 C 75 % 1013 hPa 0,0 l/m 41,9 km/h (6 Bft)
04.03.2007 02:14 20,7 C 4,3 C 75 % 1013 hPa 0,0 l/m 41,9 km/h (6 Bft)
04.03.2007 02:17 20,7 C 4,3 C 75 % 1013 hPa 0,0 l/m 39,8 km/h (6 Bft)
04.03.2007 02:20 20,7 C 4,3 C 74 % 1013 hPa 0,0 l/m 43,3 km/h (6 Bft)
04.03.2007 02:23 20,7 C 4,3 C 75 % 1013 hPa 0,0 l/m 36,8 km/h (5 Bft)
04.03.2007 02:26 20,7 C 4,2 C 77 % 1013 hPa 0,0 l/m 33,4 km/h (5 Bft)
04.03.2007 02:29 20,7 C 4,1 C 77 % 1013 hPa 0,0 l/m 33,9 km/h (5 Bft)
04.03.2007 02:32 20,7 C 4,1 C 75 % 1013 hPa 0,0 l/m 33,9 km/h (5 Bft)
04.03.2007 02:35 20,7 C 4,1 C 76 % 1013 hPa 0,0 l/m 39,8 km/h (6 Bft)
04.03.2007 02:38 20,7 C 4,1 C 76 % 1013 hPa 0,0 l/m 36,0 km/h (5 Bft)
04.03.2007 02:41 20,7 C 4,1 C 76 % 1013 hPa 0,0 l/m 32,9 km/h (5 Bft)
04.03.2007 02:44 20,7 C 4,1 C 76 % 1013 hPa 0,0 l/m 31,7 km/h (5 Bft)
04.03.2007 02:47 20,6 C 4,0 C 75 % 1013 hPa 0,0 l/m 33,5 km/h (5 Bft)
04.03.2007 02:50 20,6 C 4,0 C 76 % 1013 hPa 0,0 l/m 35,8 km/h (5 Bft)
04.03.2007 02:53 20,6 C 4,0 C 76 % 1013 hPa 0,0 l/m 32,9 km/h (5 Bft)
04.03.2007 02:56 20,6 C 4,0 C 76 % 1013 hPa 0,0 l/m 32,9 km/h (5 Bft)
04.03.2007 02:59 20,6 C 3,9 C 76 % 1013 hPa 0,0 l/m 29,9 km/h (5 Bft)
04.03.2007 03:02 20,6 C 3,8 C 76 % 1013 hPa 0,0 l/m 33,7 km/h (5 Bft)
04.03.2007 03:05 20,6 C 3,8 C 76 % 1013 hPa 0,0 l/m 33,2 km/h (5 Bft)
04.03.2007 03:08 20,7 C 3,8 C 75 % 1013 hPa 0,0 l/m 30,1 km/h (5 Bft)
04.03.2007 03:11 20,7 C 3,8 C 75 % 1013 hPa 0,0 l/m 30,1 km/h (5 Bft)
04.03.2007 03:14 20,6 C 3,8 C 76 % 1013 hPa 0,0 l/m 29,8 km/h (5 Bft)
04.03.2007 03:17 20,6 C 3,7 C 76 % 1013 hPa 0,0 l/m 33,2 km/h (5 Bft)
04.03.2007 03:20 20,6 C 3,6 C 77 % 1013 hPa 0,0 l/m 28,7 km/h (4 Bft)
04.03.2007 03:23 20,6 C 3,5 C 77 % 1013 hPa 0,0 l/m 23,1 km/h (4 Bft)
04.03.2007 03:26 20,6 C 3,5 C 77 % 1013 hPa 0,0 l/m 24,5 km/h (4 Bft)
04.03.2007 03:29 20,6 C 3,7 C 76 % 1013 hPa 0,0 l/m 31,0 km/h (5 Bft)
04.03.2007 03:32 20,6 C 3,7 C 76 % 1014 hPa 0,0 l/m 31,4 km/h (5 Bft)
04.03.2007 03:35 20,6 C 3,5 C 77 % 1014 hPa 0,0 l/m 24,9 km/h (4 Bft)
04.03.2007 03:38 20,7 C 3,5 C 78 % 1014 hPa 0,0 l/m 25,7 km/h (4 Bft)
04.03.2007 03:41 20,6 C 3,4 C 78 % 1014 hPa 0,0 l/m 25,8 km/h (4 Bft)
04.03.2007 03:44 20,6 C 3,5 C 77 % 1014 hPa 0,0 l/m 31,6 km/h (5 Bft)
04.03.2007 03:47 20,6 C 3,5 C 77 % 1014 hPa 0,0 l/m 24,4 km/h (4 Bft)
04.03.2007 03:50 20,7 C 3,5 C 76 % 1014 hPa 0,0 l/m 32,1 km/h (5 Bft)
04.03.2007 03:53 20,6 C 3,7 C 76 % 1014 hPa 0,0 l/m 29,3 km/h (5 Bft)
04.03.2007 03:56 20,7 C 3,6 C 77 % 1014 hPa 0,0 l/m 25,7 km/h (4 Bft)
04.03.2007 03:59 20,6 C 3,6 C 77 % 1014 hPa 0,0 l/m 27,1 km/h (4 Bft)
04.03.2007 04:02 20,7 C 3,8 C 76 % 1014 hPa 0,0 l/m 32,7 km/h (5 Bft)
04.03.2007 04:05 20,7 C 3,7 C 77 % 1014 hPa 0,0 l/m 22,8 km/h (4 Bft)
04.03.2007 04:08 20,6 C 3,7 C 77 % 1014 hPa 0,0 l/m 25,5 km/h (4 Bft)
04.03.2007 04:11 20,7 C 3,7 C 77 % 1014 hPa 0,0 l/m 28,9 km/h (5 Bft)
04.03.2007 04:14 20,6 C 3,6 C 77 % 1014 hPa 0,0 l/m 21,9 km/h (4 Bft)
04.03.2007 04:17 20,6 C 3,6 C 77 % 1014 hPa 0,0 l/m 24,5 km/h (4 Bft)
04.03.2007 04:20 20,6 C 3,5 C 77 % 1014 hPa 0,0 l/m 24,6 km/h (4 Bft)
04.03.2007 04:23 20,7 C 3,6 C 77 % 1014 hPa 0,0 l/m 28,3 km/h (4 Bft)
04.03.2007 04:26 20,6 C 3,5 C 78 % 1014 hPa 0,0 l/m 28,3 km/h (4 Bft)
04.03.2007 04:29 20,6 C 3,5 C 78 % 1014 hPa 0,0 l/m 24,1 km/h (4 Bft)
04.03.2007 04:32 20,7 C 3,4 C 78 % 1014 hPa 0,0 l/m 28,8 km/h (4 Bft)
04.03.2007 04:35 20,6 C 3,4 C 78 % 1014 hPa 0,0 l/m 34,6 km/h (5 Bft)
04.03.2007 04:38 20,6 C 3,4 C 78 % 1014 hPa 0,0 l/m 23,5 km/h (4 Bft)
04.03.2007 04:42 20,6 C 3,3 C 78 % 1015 hPa 0,0 l/m 23,3 km/h (4 Bft)
04.03.2007 04:45 20,6 C 3,3 C 78 % 1015 hPa 0,0 l/m 23,3 km/h (4 Bft)
04.03.2007 04:48 20,6 C 3,3 C 78 % 1015 hPa 0,0 l/m 23,1 km/h (4 Bft)
04.03.2007 04:51 20,6 C 3,2 C 78 % 1015 hPa 0,0 l/m 22,1 km/h (4 Bft)
04.03.2007 04:54 20,6 C 3,2 C 78 % 1015 hPa 0,0 l/m 22,5 km/h (4 Bft)
04.03.2007 04:57 20,6 C 3,2 C 78 % 1015 hPa 0,0 l/m 22,5 km/h (4 Bft)
04.03.2007 05:00 20,6 C 3,1 C 79 % 1015 hPa 0,0 l/m 26,4 km/h (4 Bft)
04.03.2007 05:03 20,6 C 3,1 C 80 % 1015 hPa 0,0 l/m 20,3 km/h (4 Bft)
04.03.2007 05:06 20,6 C 3,1 C 80 % 1015 hPa 0,0 l/m 19,5 km/h (3 Bft)
04.03.2007 05:09 20,6 C 3,1 C 80 % 1015 hPa 0,0 l/m 20,1 km/h (4 Bft)
04.03.2007 05:12 20,6 C 3,0 C 80 % 1015 hPa 0,0 l/m 17,3 km/h (3 Bft)
04.03.2007 05:14 20,6 C 2,9 C 79 % 1015 hPa 0,0 l/m 19,1 km/h (3 Bft)
04.03.2007 05:17 20,6 C 2,9 C 79 % 1015 hPa 0,0 l/m 19,6 km/h (3 Bft)
04.03.2007 05:20 20,6 C 2,9 C 79 % 1015 hPa 0,0 l/m 15,3 km/h (3 Bft)
04.03.2007 05:23 20,6 C 2,8 C 80 % 1015 hPa 0,0 l/m 16,3 km/h (3 Bft)
04.03.2007 05:26 20,6 C 2,8 C 80 % 1015 hPa 0,0 l/m 20,3 km/h (4 Bft)
04.03.2007 05:29 20,6 C 2,7 C 80 % 1015 hPa 0,0 l/m 16,5 km/h (3 Bft)
04.03.2007 05:32 20,7 C 2,7 C 80 % 1015 hPa 0,0 l/m 13,6 km/h (3 Bft)
04.03.2007 05:35 20,7 C 2,7 C 80 % 1015 hPa 0,0 l/m 15,9 km/h (3 Bft)
04.03.2007 05:38 20,7 C 2,7 C 80 % 1015 hPa 0,0 l/m 16,6 km/h (3 Bft)
04.03.2007 05:41 20,8 C 2,7 C 80 % 1016 hPa 0,0 l/m 16,6 km/h (3 Bft)
04.03.2007 05:44 20,8 C 2,7 C 80 % 1016 hPa 0,0 l/m 17,9 km/h (3 Bft)
04.03.2007 05:47 20,8 C 2,7 C 81 % 1016 hPa 0,0 l/m 15,6 km/h (3 Bft)
04.03.2007 05:50 20,8 C 2,6 C 81 % 1016 hPa 0,0 l/m 13,2 km/h (3 Bft)
04.03.2007 05:53 20,8 C 2,6 C 81 % 1016 hPa 0,0 l/m 13,2 km/h (3 Bft)
04.03.2007 05:56 20,8 C 2,6 C 81 % 1016 hPa 0,0 l/m 10,9 km/h (2 Bft)
04.03.2007 05:59 20,8 C 2,5 C 81 % 1016 hPa 0,0 l/m 8,1 km/h (2 Bft)
04.03.2007 06:02 20,8 C 2,5 C 81 % 1016 hPa 0,0 l/m 9,9 km/h (2 Bft)
04.03.2007 06:05 20,8 C 2,5 C 81 % 1016 hPa 0,0 l/m 10,8 km/h (2 Bft)
04.03.2007 06:08 20,8 C 2,5 C 81 % 1016 hPa 0,0 l/m 8,7 km/h (2 Bft)
04.03.2007 06:11 20,9 C 2,3 C 81 % 1016 hPa 0,0 l/m 5,9 km/h (2 Bft)
04.03.2007 06:14 20,9 C 2,3 C 81 % 1016 hPa 0,0 l/m 6,8 km/h (2 Bft)
04.03.2007 06:17 20,6 C 2,3 C 81 % 1016 hPa 0,0 l/m 6,3 km/h (2 Bft)
04.03.2007 06:20 19,6 C 2,3 C 81 % 1016 hPa 0,0 l/m 5,4 km/h (1 Bft)
04.03.2007 06:23 18,8 C 2,2 C 81 % 1016 hPa 0,0 l/m 7,4 km/h (2 Bft)
04.03.2007 06:26 18,2 C 2,3 C 82 % 1016 hPa 0,0 l/m 7,4 km/h (2 Bft)
04.03.2007 06:29 18,6 C 2,2 C 82 % 1016 hPa 0,0 l/m 8,6 km/h (2 Bft)
04.03.2007 06:32 18,9 C 2,2 C 83 % 1016 hPa 0,0 l/m 5,9 km/h (2 Bft)
04.03.2007 06:35 19,2 C 2,1 C 83 % 1016 hPa 0,0 l/m 6,9 km/h (2 Bft)
04.03.2007 06:38 19,5 C 2,1 C 83 % 1016 hPa 0,0 l/m 8,9 km/h (2 Bft)
04.03.2007 06:41 19,7 C 2,1 C 83 % 1016 hPa 0,0 l/m 8,5 km/h (2 Bft)
04.03.2007 06:44 19,7 C 2,0 C 83 % 1016 hPa 0,0 l/m 5,2 km/h (1 Bft)
04.03.2007 06:47 20,0 C 1,9 C 83 % 1016 hPa 0,0 l/m 5,2 km/h (1 Bft)
04.03.2007 06:50 20,1 C 1,9 C 83 % 1016 hPa 0,0 l/m 4,6 km/h (1 Bft)
04.03.2007 06:53 20,2 C 1,9 C 83 % 1017 hPa 0,0 l/m 5,6 km/h (1 Bft)
04.03.2007 06:56 20,3 C 1,9 C 83 % 1017 hPa 0,0 l/m 5,1 km/h (1 Bft)
04.03.2007 06:59 20,3 C 1,9 C 83 % 1017 hPa 0,0 l/m 7,2 km/h (2 Bft)
04.03.2007 07:02 20,4 C 1,9 C 83 % 1017 hPa 0,0 l/m 8,5 km/h (2 Bft)
04.03.2007 07:05 20,4 C 1,8 C 83 % 1017 hPa 0,0 l/m 8,1 km/h (2 Bft)
04.03.2007 07:08 20,4 C 1,9 C 83 % 1017 hPa 0,0 l/m 7,3 km/h (2 Bft)
04.03.2007 07:11 20,5 C 1,9 C 83 % 1017 hPa 0,0 l/m 7,0 km/h (2 Bft)
04.03.2007 07:14 20,5 C 1,8 C 83 % 1017 hPa 0,0 l/m 6,1 km/h (2 Bft)
04.03.2007 07:17 20,5 C 1,8 C 84 % 1017 hPa 0,0 l/m 5,9 km/h (2 Bft)
04.03.2007 07:20 20,6 C 1,8 C 84 % 1017 hPa 0,0 l/m 5,0 km/h (1 Bft)
04.03.2007 07:23 20,6 C 1,9 C 85 % 1017 hPa 0,0 l/m 3,8 km/h (1 Bft)
04.03.2007 07:26 20,6 C 1,9 C 85 % 1017 hPa 0,0 l/m 4,0 km/h (1 Bft)
04.03.2007 07:29 20,7 C 1,9 C 85 % 1017 hPa 0,0 l/m 1,1 km/h (1 Bft)
04.03.2007 07:32 20,7 C 1,9 C 85 % 1017 hPa 0,0 l/m 0,6 km/h (0 Bft)
04.03.2007 07:35 20,7 C 2,0 C 84 % 1017 hPa 0,0 l/m 2,8 km/h (1 Bft)
04.03.2007 07:38 20,7 C 2,1 C 84 % 1017 hPa 0,0 l/m 0,9 km/h (0 Bft)
04.03.2007 07:41 20,8 C 2,1 C 84 % 1017 hPa 0,0 l/m 2,7 km/h (1 Bft)
04.03.2007 07:44 20,8 C 2,1 C 84 % 1017 hPa 0,0 l/m 0,3 km/h (0 Bft)
04.03.2007 07:47 20,8 C 2,3 C 83 % 1017 hPa 0,0 l/m 3,0 km/h (1 Bft)
04.03.2007 07:50 20,9 C 2,3 C 83 % 1017 hPa 0,0 l/m 3,6 km/h (1 Bft)
04.03.2007 07:53 20,9 C 2,4 C 83 % 1017 hPa 0,0 l/m 3,4 km/h (1 Bft)
04.03.2007 07:56 20,9 C 2,4 C 83 % 1017 hPa 0,0 l/m 2,8 km/h (1 Bft)
04.03.2007 07:59 21,0 C 2,6 C 83 % 1017 hPa 0,0 l/m 3,6 km/h (1 Bft)
04.03.2007 08:02 21,0 C 2,7 C 82 % 1017 hPa 0,0 l/m 0,0 km/h (0 Bft)
04.03.2007 08:05 21,0 C 2,7 C 82 % 1017 hPa 0,0 l/m 0,0 km/h (0 Bft)
04.03.2007 08:08 21,0 C 2,8 C 82 % 1017 hPa 0,0 l/m 0,0 km/h (0 Bft)
04.03.2007 08:11 21,1 C 2,9 C 82 % 1017 hPa 0,0 l/m 0,0 km/h (0 Bft)
04.03.2007 08:14 21,2 C 3,0 C 82 % 1017 hPa 0,0 l/m 0,7 km/h (0 Bft)
04.03.2007 08:17 21,2 C 3,1 C 81 % 1017 hPa 0,0 l/m 1,4 km/h (1 Bft)
04.03.2007 08:20 21,3 C 3,2 C 81 % 1017 hPa 0,0 l/m 0,0 km/h (0 Bft)
04.03.2007 08:23 21,3 C 3,3 C 81 % 1017 hPa 0,0 l/m 0,0 km/h (0 Bft)
04.03.2007 08:26 21,4 C 3,4 C 81 % 1017 hPa 0,0 l/m 1,3 km/h (1 Bft)
04.03.2007 08:29 21,5 C 3,5 C 80 % 1017 hPa 0,0 l/m 1,3 km/h (1 Bft)
04.03.2007 08:32 21,6 C 3,6 C 81 % 1017 hPa 0,0 l/m 0,3 km/h (0 Bft)
04.03.2007 08:35 21,6 C 3,7 C 81 % 1017 hPa 0,0 l/m 0,7 km/h (0 Bft)
04.03.2007 08:38 21,7 C 3,8 C 81 % 1017 hPa 0,0 l/m 2,3 km/h (1 Bft)
04.03.2007 08:41 21,8 C 3,9 C 80 % 1017 hPa 0,0 l/m 0,9 km/h (0 Bft)
04.03.2007 08:44 21,8 C 4,0 C 79 % 1017 hPa 0,0 l/m 2,8 km/h (1 Bft)
04.03.2007 08:47 21,9 C 4,0 C 79 % 1017 hPa 0,0 l/m 1,0 km/h (0 Bft)
04.03.2007 08:50 22,0 C 4,2 C 80 % 1018 hPa 0,0 l/m 1,8 km/h (1 Bft)
04.03.2007 08:53 22,1 C 4,3 C 79 % 1018 hPa 0,0 l/m 2,5 km/h (1 Bft)
04.03.2007 08:56 22,0 C 4,3 C 79 % 1018 hPa 0,0 l/m 2,7 km/h (1 Bft)
04.03.2007 08:59 22,0 C 4,3 C 79 % 1018 hPa 0,0 l/m 6,5 km/h (2 Bft)
04.03.2007 09:02 22,0 C 4,6 C 79 % 1018 hPa 0,0 l/m 3,4 km/h (1 Bft)
04.03.2007 09:05 22,2 C 4,7 C 78 % 1018 hPa 0,0 l/m 12,5 km/h (3 Bft)
04.03.2007 09:08 22,2 C 5,2 C 77 % 1018 hPa 0,0 l/m 9,4 km/h (2 Bft)
04.03.2007 09:11 22,2 C 5,2 C 76 % 1018 hPa 0,0 l/m 12,3 km/h (3 Bft)
04.03.2007 09:14 22,2 C 5,4 C 76 % 1018 hPa 0,0 l/m 15,0 km/h (3 Bft)
04.03.2007 09:17 22,2 C 5,5 C 75 % 1018 hPa 0,0 l/m 18,4 km/h (3 Bft)
04.03.2007 09:20 22,2 C 5,6 C 75 % 1018 hPa 0,0 l/m 16,7 km/h (3 Bft)
04.03.2007 09:23 22,2 C 5,7 C 76 % 1018 hPa 0,0 l/m 14,8 km/h (3 Bft)
04.03.2007 09:26 22,2 C 5,7 C 74 % 1018 hPa 0,0 l/m 18,0 km/h (3 Bft)
04.03.2007 09:29 22,2 C 5,8 C 72 % 1018 hPa 0,0 l/m 20,0 km/h (4 Bft)
04.03.2007 09:32 22,2 C 5,8 C 74 % 1018 hPa 0,0 l/m 18,4 km/h (3 Bft)
04.03.2007 09:35 22,2 C 5,9 C 75 % 1018 hPa 0,0 l/m 18,1 km/h (3 Bft)
04.03.2007 09:38 22,2 C 6,0 C 73 % 1018 hPa 0,0 l/m 18,6 km/h (3 Bft)
04.03.2007 09:41 22,2 C 5,9 C 75 % 1018 hPa 0,0 l/m 15,0 km/h (3 Bft)
04.03.2007 09:44 22,1 C 6,0 C 74 % 1018 hPa 0,0 l/m 12,0 km/h (2 Bft)
04.03.2007 09:47 22,1 C 6,0 C 73 % 1018 hPa 0,0 l/m 12,5 km/h (3 Bft)
04.03.2007 09:50 22,2 C 6,1 C 73 % 1018 hPa 0,0 l/m 16,6 km/h (3 Bft)
04.03.2007 09:53 22,2 C 6,1 C 74 % 1018 hPa 0,0 l/m 14,9 km/h (3 Bft)
04.03.2007 09:56 22,3 C 6,2 C 73 % 1018 hPa 0,0 l/m 9,6 km/h (2 Bft)
04.03.2007 09:59 22,3 C 6,3 C 72 % 1018 hPa 0,0 l/m 12,5 km/h (3 Bft)
04.03.2007 10:02 22,2 C 6,4 C 73 % 1018 hPa 0,0 l/m 13,3 km/h (3 Bft)
04.03.2007 10:05 22,2 C 6,4 C 71 % 1018 hPa 0,0 l/m 11,1 km/h (2 Bft)
04.03.2007 10:08 22,2 C 7,8 C 86 % 1018 hPa 0,0 l/m 12,4 km/h (3 Bft)
04.03.2007 10:11 22,2 C 7,8 C 86 % 1018 hPa 0,0 l/m 13,9 km/h (3 Bft)
04.03.2007 10:14 22,3 C 8,0 C 70 % 1018 hPa 0,0 l/m 8,9 km/h (2 Bft)
04.03.2007 10:17 22,3 C 7,8 C 68 % 1018 hPa 0,0 l/m 12,3 km/h (3 Bft)
04.03.2007 10:20 22,3 C 7,6 C 68 % 1018 hPa 0,0 l/m 9,3 km/h (2 Bft)
04.03.2007 10:23 22,4 C 7,2 C 69 % 1018 hPa 0,0 l/m 11,6 km/h (2 Bft)
04.03.2007 10:26 22,3 C 7,0 C 69 % 1018 hPa 0,0 l/m 7,0 km/h (2 Bft)
04.03.2007 10:29 22,4 C 7,0 C 70 % 1018 hPa 0,0 l/m 7,4 km/h (2 Bft)
04.03.2007 10:32 22,3 C 6,9 C 68 % 1018 hPa 0,0 l/m 11,1 km/h (2 Bft)
04.03.2007 10:35 22,4 C 6,9 C 68 % 1018 hPa 0,0 l/m 11,1 km/h (2 Bft)
04.03.2007 10:38 22,4 C 6,8 C 71 % 1018 hPa 0,0 l/m 10,5 km/h (2 Bft)
04.03.2007 10:41 22,4 C 6,8 C 71 % 1018 hPa 0,0 l/m 10,2 km/h (2 Bft)
04.03.2007 10:44 22,4 C 6,9 C 73 % 1018 hPa 0,0 l/m 10,2 km/h (2 Bft)
04.03.2007 10:47 22,4 C 7,1 C 71 % 1018 hPa 0,0 l/m 4,3 km/h (1 Bft)
04.03.2007 10:50 22,4 C 7,3 C 74 % 1018 hPa 0,0 l/m 5,7 km/h (1 Bft)
04.03.2007 10:53 22,5 C 7,7 C 74 % 1018 hPa 0,0 l/m 7,0 km/h (2 Bft)
04.03.2007 10:56 22,4 C 8,0 C 71 % 1018 hPa 0,0 l/m 11,3 km/h (2 Bft)
04.03.2007 10:59 22,5 C 8,0 C 69 % 1018 hPa 0,0 l/m 11,0 km/h (2 Bft)
04.03.2007 11:02 22,5 C 8,0 C 67 % 1018 hPa 0,0 l/m 8,2 km/h (2 Bft)
04.03.2007 11:05 22,5 C 8,0 C 67 % 1018 hPa 0,0 l/m 4,5 km/h (1 Bft)
04.03.2007 11:08 22,5 C 8,0 C 68 % 1018 hPa 0,0 l/m 2,2 km/h (1 Bft)
04.03.2007 11:11 22,5 C 8,0 C 69 % 1018 hPa 0,0 l/m 15,1 km/h (3 Bft)
04.03.2007 11:14 22,5 C 7,9 C 68 % 1018 hPa 0,0 l/m 5,8 km/h (2 Bft)
04.03.2007 11:17 22,5 C 8,0 C 70 % 1018 hPa 0,0 l/m 10,0 km/h (2 Bft)
04.03.2007 11:20 22,5 C 8,1 C 70 % 1018 hPa 0,0 l/m 9,3 km/h (2 Bft)
04.03.2007 11:23 22,4 C 8,1 C 70 % 1018 hPa 0,0 l/m 4,0 km/h (1 Bft)
04.03.2007 11:26 22,4 C 8,1 C 70 % 1018 hPa 0,0 l/m 7,1 km/h (2 Bft)
04.03.2007 11:29 22,4 C 8,5 C 68 % 1018 hPa 0,0 l/m 10,1 km/h (2 Bft)
04.03.2007 11:32 22,4 C 8,6 C 68 % 1018 hPa 0,0 l/m 6,9 km/h (2 Bft)
04.03.2007 11:35 22,4 C 8,4 C 64 % 1018 hPa 0,0 l/m 4,5 km/h (1 Bft)
04.03.2007 11:38 22,4 C 8,2 C 66 % 1018 hPa 0,0 l/m 9,3 km/h (2 Bft)
04.03.2007 11:41 22,4 C 8,2 C 66 % 1018 hPa 0,0 l/m 7,6 km/h (2 Bft)
04.03.2007 11:44 22,4 C 8,4 C 68 % 1018 hPa 0,0 l/m 7,8 km/h (2 Bft)
04.03.2007 11:47 22,4 C 8,4 C 66 % 1018 hPa 0,0 l/m 0,5 km/h (0 Bft)
04.03.2007 11:50 22,4 C 8,4 C 66 % 1018 hPa 0,0 l/m 0,4 km/h (0 Bft)
04.03.2007 11:53 22,4 C 8,5 C 67 % 1018 hPa 0,0 l/m 0,2 km/h (0 Bft)
04.03.2007 11:56 22,4 C 8,7 C 67 % 1018 hPa 0,0 l/m 0,0 km/h (0 Bft)
04.03.2007 11:59 22,4 C 8,8 C 66 % 1018 hPa 0,0 l/m 2,3 km/h (1 Bft)
04.03.2007 12:02 22,4 C 8,9 C 65 % 1017 hPa 0,0 l/m 5,7 km/h (1 Bft)
04.03.2007 12:06 22,4 C 8,7 C 65 % 1017 hPa 0,0 l/m 14,1 km/h (3 Bft)
04.03.2007 12:09 22,4 C 8,8 C 66 % 1017 hPa 0,0 l/m 15,0 km/h (3 Bft)
04.03.2007 12:12 22,4 C 8,9 C 66 % 1017 hPa 0,0 l/m 12,5 km/h (3 Bft)
04.03.2007 12:15 22,4 C 9,1 C 66 % 1017 hPa 0,0 l/m 11,8 km/h (2 Bft)
04.03.2007 12:18 22,4 C 9,2 C 64 % 1017 hPa 0,0 l/m 7,8 km/h (2 Bft)
04.03.2007 12:21 22,4 C 9,3 C 62 % 1017 hPa 0,0 l/m 13,9 km/h (3 Bft)
04.03.2007 12:24 22,4 C 9,2 C 61 % 1017 hPa 0,0 l/m 8,4 km/h (2 Bft)
04.03.2007 12:27 22,4 C 9,2 C 61 % 1017 hPa 0,0 l/m 6,7 km/h (2 Bft)
04.03.2007 12:30 22,1 C 9,3 C 64 % 1017 hPa 0,0 l/m 5,1 km/h (1 Bft)
04.03.2007 12:33 21,1 C 9,5 C 64 % 1017 hPa 0,0 l/m 15,5 km/h (3 Bft)
04.03.2007 12:36 20,7 C 9,5 C 62 % 1017 hPa 0,0 l/m 13,6 km/h (3 Bft)
04.03.2007 12:38 20,4 C 9,4 C 61 % 1017 hPa 0,0 l/m 9,1 km/h (2 Bft)
04.03.2007 12:41 20,1 C 9,6 C 62 % 1017 hPa 0,0 l/m 11,1 km/h (2 Bft)
04.03.2007 12:44 19,9 C 9,6 C 62 % 1017 hPa 0,0 l/m 11,4 km/h (2 Bft)
04.03.2007 12:47 19,8 C 10,0 C 62 % 1017 hPa 0,0 l/m 1,9 km/h (1 Bft)
04.03.2007 12:50 19,6 C 10,1 C 64 % 1017 hPa 0,0 l/m 1,9 km/h (1 Bft)
04.03.2007 12:53 19,4 C 10,2 C 61 % 1017 hPa 0,0 l/m 14,6 km/h (3 Bft)
04.03.2007 12:56 19,4 C 10,2 C 61 % 1017 hPa 0,0 l/m 14,3 km/h (3 Bft)
04.03.2007 12:59 19,2 C 10,2 C 63 % 1017 hPa 0,0 l/m 7,7 km/h (2 Bft)
04.03.2007 13:02 19,2 C 10,2 C 60 % 1017 hPa 0,0 l/m 7,7 km/h (2 Bft)
04.03.2007 13:05 19,2 C 10,0 C 58 % 1017 hPa 0,0 l/m 9,0 km/h (2 Bft)
04.03.2007 13:08 19,1 C 9,8 C 57 % 1017 hPa 0,0 l/m 9,1 km/h (2 Bft)
04.03.2007 13:11 19,1 C 9,8 C 62 % 1017 hPa 0,0 l/m 9,9 km/h (2 Bft)
04.03.2007 13:14 19,1 C 9,9 C 65 % 1017 hPa 0,0 l/m 10,3 km/h (2 Bft)
04.03.2007 13:17 18,9 C 9,8 C 60 % 1017 hPa 0,0 l/m 7,6 km/h (2 Bft)
04.03.2007 13:20 18,8 C 9,7 C 61 % 1017 hPa 0,0 l/m 7,2 km/h (2 Bft)
04.03.2007 13:23 18,8 C 9,6 C 60 % 1017 hPa 0,0 l/m 4,0 km/h (1 Bft)
04.03.2007 13:26 18,7 C 9,7 C 58 % 1017 hPa 0,0 l/m 4,8 km/h (1 Bft)
04.03.2007 13:29 18,7 C 9,8 C 60 % 1017 hPa 0,0 l/m 5,7 km/h (1 Bft)
04.03.2007 13:32 18,8 C 9,9 C 58 % 1017 hPa 0,0 l/m 12,0 km/h (2 Bft)
04.03.2007 13:35 18,8 C 10,0 C 60 % 1017 hPa 0,0 l/m 1,3 km/h (1 Bft)
04.03.2007 13:38 18,7 C 10,2 C 60 % 1017 hPa 0,0 l/m 4,0 km/h (1 Bft)
04.03.2007 13:41 18,6 C 10,4 C 60 % 1017 hPa 0,0 l/m 6,3 km/h (2 Bft)
04.03.2007 13:44 18,7 C 10,4 C 60 % 1017 hPa 0,0 l/m 6,8 km/h (2 Bft)
04.03.2007 13:47 19,0 C 10,4 C 60 % 1017 hPa 0,0 l/m 13,8 km/h (3 Bft)
04.03.2007 13:50 19,6 C 10,7 C 58 % 1017 hPa 0,0 l/m 8,2 km/h (2 Bft)
04.03.2007 13:53 19,9 C 10,7 C 58 % 1017 hPa 0,0 l/m 9,5 km/h (2 Bft)
04.03.2007 13:56 20,0 C 10,7 C 58 % 1017 hPa 0,0 l/m 8,7 km/h (2 Bft)
04.03.2007 13:59 20,2 C 10,6 C 60 % 1016 hPa 0,0 l/m 3,0 km/h (1 Bft)
04.03.2007 14:02 20,4 C 10,4 C 59 % 1016 hPa 0,0 l/m 6,3 km/h (2 Bft)
04.03.2007 14:05 20,5 C 10,4 C 60 % 1016 hPa 0,0 l/m 1,3 km/h (1 Bft)
04.03.2007 14:08 20,6 C 10,3 C 58 % 1016 hPa 0,0 l/m 0,4 km/h (0 Bft)
04.03.2007 14:11 20,7 C 10,3 C 60 % 1016 hPa 0,0 l/m 0,4 km/h (0 Bft)
04.03.2007 14:14 20,8 C 10,3 C 59 % 1016 hPa 0,0 l/m 4,0 km/h (1 Bft)
04.03.2007 14:17 20,9 C 10,2 C 58 % 1016 hPa 0,0 l/m 0,9 km/h (0 Bft)
04.03.2007 14:20 21,0 C 9,9 C 61 % 1016 hPa 0,0 l/m 0,6 km/h (0 Bft)
04.03.2007 14:23 21,0 C 9,7 C 61 % 1016 hPa 0,0 l/m 2,5 km/h (1 Bft)
04.03.2007 14:26 21,1 C 9,8 C 58 % 1016 hPa 0,0 l/m 0,6 km/h (0 Bft)
04.03.2007 14:29 21,0 C 9,7 C 60 % 1016 hPa 0,0 l/m 0,0 km/h (0 Bft)
04.03.2007 14:32 21,1 C 9,8 C 59 % 1016 hPa 0,0 l/m 0,0 km/h (0 Bft)
04.03.2007 14:35 21,1 C 9,7 C 60 % 1016 hPa 0,0 l/m 0,0 km/h (0 Bft)
04.03.2007 14:38 21,1 C 9,7 C 61 % 1016 hPa 0,0 l/m 0,0 km/h (0 Bft)
04.03.2007 14:41 20,1 C 9,6 C 60 % 1016 hPa 0,0 l/m 0,0 km/h (0 Bft)
04.03.2007 14:44 19,4 C 9,6 C 61 % 1016 hPa 0,0 l/m 0,0 km/h (0 Bft)
04.03.2007 14:47 19,1 C 9,5 C 61 % 1016 hPa 0,0 l/m 0,0 km/h (0 Bft)
04.03.2007 14:50 18,8 C 9,5 C 61 % 1016 hPa 0,0 l/m 0,0 km/h (0 Bft)
04.03.2007 14:53 18,7 C 9,4 C 61 % 1016 hPa 0,0 l/m 0,0 km/h (0 Bft)
04.03.2007 14:56 18,5 C 9,5 C 61 % 1016 hPa 0,0 l/m 0,0 km/h (0 Bft)
04.03.2007 14:59 18,4 C 9,5 C 61 % 1016 hPa 0,0 l/m 0,4 km/h (0 Bft)
04.03.2007 15:02 18,3 C 9,6 C 60 % 1016 hPa 0,0 l/m 2,8 km/h (1 Bft)
04.03.2007 15:05 18,3 C 9,5 C 60 % 1016 hPa 0,0 l/m 0,2 km/h (0 Bft)
04.03.2007 15:08 18,2 C 9,5 C 60 % 1016 hPa 0,0 l/m 0,0 km/h (0 Bft)
04.03.2007 15:11 18,0 C 9,5 C 62 % 1016 hPa 0,0 l/m 0,0 km/h (0 Bft)
04.03.2007 15:14 17,9 C 9,5 C 61 % 1016 hPa 0,0 l/m 0,0 km/h (0 Bft)
04.03.2007 15:17 17,9 C 9,6 C 61 % 1016 hPa 0,0 l/m 0,0 km/h (0 Bft)
04.03.2007 15:20 17,8 C 9,6 C 61 % 1016 hPa 0,0 l/m 0,0 km/h (0 Bft)
04.03.2007 15:23 17,8 C 9,8 C 61 % 1016 hPa 0,0 l/m 0,0 km/h (0 Bft)
04.03.2007 15:26 17,8 C 10,0 C 61 % 1016 hPa 0,0 l/m 0,0 km/h (0 Bft)
04.03.2007 15:29 17,8 C 10,1 C 61 % 1016 hPa 0,0 l/m 0,4 km/h (0 Bft)
04.03.2007 15:32 17,8 C 10,2 C 60 % 1016 hPa 0,0 l/m 0,6 km/h (0 Bft)
04.03.2007 15:35 17,7 C 10,2 C 60 % 1016 hPa 0,0 l/m 3,7 km/h (1 Bft)
04.03.2007 15:38 17,6 C 10,4 C 61 % 1016 hPa 0,0 l/m 0,4 km/h (0 Bft)
04.03.2007 15:41 17,6 C 10,4 C 61 % 1016 hPa 0,0 l/m 4,9 km/h (1 Bft)
04.03.2007 15:44 17,6 C 10,4 C 61 % 1016 hPa 0,0 l/m 4,9 km/h (1 Bft)
04.03.2007 15:47 17,8 C 10,4 C 61 % 1016 hPa 0,0 l/m 4,3 km/h (1 Bft)
04.03.2007 15:50 18,1 C 10,4 C 60 % 1016 hPa 0,0 l/m 4,7 km/h (1 Bft)
04.03.2007 15:53 18,4 C 10,5 C 61 % 1016 hPa 0,0 l/m 1,2 km/h (1 Bft)
04.03.2007 15:56 18,8 C 10,6 C 61 % 1016 hPa 0,0 l/m 0,9 km/h (0 Bft)
04.03.2007 15:59 19,1 C 10,5 C 61 % 1016 hPa 0,0 l/m 4,5 km/h (1 Bft)
04.03.2007 16:21 19,5 C 10,5 C 61 % 1016 hPa 0,0 l/m 8,9 km/h (2 Bft)
04.03.2007 16:24 19,6 C 10,6 C 61 % 1016 hPa 0,0 l/m 7,0 km/h (2 Bft)
04.03.2007 16:27 19,8 C 10,6 C 60 % 1016 hPa 0,0 l/m 1,3 km/h (1 Bft)
04.03.2007 16:30 19,9 C 10,5 C 60 % 1016 hPa 0,0 l/m 2,8 km/h (1 Bft)
04.03.2007 16:33 20,0 C 10,5 C 60 % 1016 hPa 0,0 l/m 0,0 km/h (0 Bft)
04.03.2007 16:36 20,1 C 10,5 C 60 % 1016 hPa 0,0 l/m 0,0 km/h (0 Bft)
04.03.2007 16:39 20,2 C 10,5 C 61 % 1016 hPa 0,0 l/m 4,3 km/h (1 Bft)
04.03.2007 16:42 20,2 C 10,6 C 61 % 1016 hPa 0,0 l/m 0,2 km/h (0 Bft)
04.03.2007 16:45 20,3 C 10,5 C 61 % 1016 hPa 0,0 l/m 3,7 km/h (1 Bft)
04.03.2007 16:48 20,4 C 10,5 C 61 % 1016 hPa 0,0 l/m 0,6 km/h (0 Bft)
04.03.2007 16:51 20,4 C 10,5 C 60 % 1016 hPa 0,0 l/m 4,3 km/h (1 Bft)
04.03.2007 16:54 20,5 C 10,4 C 59 % 1016 hPa 0,0 l/m 0,6 km/h (0 Bft)
04.03.2007 16:57 20,5 C 10,4 C 59 % 1016 hPa 0,0 l/m 6,3 km/h (2 Bft)
04.03.2007 17:00 20,5 C 10,4 C 60 % 1016 hPa 0,0 l/m 5,1 km/h (1 Bft)
04.03.2007 17:03 20,6 C 10,4 C 60 % 1016 hPa 0,0 l/m 3,7 km/h (1 Bft)
04.03.2007 17:06 20,6 C 10,4 C 61 % 1016 hPa 0,0 l/m 5,2 km/h (1 Bft)
04.03.2007 17:09 20,7 C 10,5 C 62 % 1016 hPa 0,0 l/m 6,1 km/h (2 Bft)
04.03.2007 17:12 20,7 C 10,4 C 61 % 1016 hPa 0,0 l/m 6,7 km/h (2 Bft)
04.03.2007 17:15 20,8 C 10,4 C 61 % 1016 hPa 0,0 l/m 5,5 km/h (1 Bft)
04.03.2007 17:18 20,8 C 10,4 C 61 % 1016 hPa 0,0 l/m 4,3 km/h (1 Bft)
04.03.2007 17:21 20,8 C 10,2 C 62 % 1016 hPa 0,0 l/m 4,2 km/h (1 Bft)
04.03.2007 17:24 20,8 C 10,2 C 62 % 1016 hPa 0,0 l/m 0,2 km/h (0 Bft)
04.03.2007 17:27 20,8 C 10,0 C 63 % 1016 hPa 0,0 l/m 2,1 km/h (1 Bft)
04.03.2007 17:30 20,9 C 10,2 C 63 % 1016 hPa 0,0 l/m 0,0 km/h (0 Bft)
04.03.2007 17:34 21,0 C 10,9 C 61 % 1016 hPa 0,0 l/m 3,2 km/h (1 Bft)
04.03.2007 17:37 20,9 C 11,1 C 61 % 1015 hPa 0,0 l/m 3,1 km/h (1 Bft)
04.03.2007 17:40 21,0 C 11,2 C 61 % 1015 hPa 0,0 l/m 2,5 km/h (1 Bft)
04.03.2007 17:43 21,0 C 11,4 C 61 % 1015 hPa 0,0 l/m 2,3 km/h (1 Bft)
04.03.2007 17:46 20,9 C 11,4 C 61 % 1015 hPa 0,0 l/m 1,7 km/h (1 Bft)
04.03.2007 17:49 20,9 C 11,6 C 61 % 1015 hPa 0,0 l/m 0,0 km/h (0 Bft)
04.03.2007 17:52 21,0 C 11,6 C 61 % 1015 hPa 0,0 l/m 0,0 km/h (0 Bft)
04.03.2007 17:55 21,1 C 11,4 C 61 % 1015 hPa 0,0 l/m 0,0 km/h (0 Bft)
04.03.2007 17:58 21,1 C 11,1 C 60 % 1015 hPa 0,0 l/m 0,3 km/h (0 Bft)
04.03.2007 18:01 21,2 C 10,6 C 60 % 1015 hPa 0,0 l/m 0,0 km/h (0 Bft)
04.03.2007 18:04 21,2 C 10,1 C 61 % 1015 hPa 0,0 l/m 0,1 km/h (0 Bft)
04.03.2007 18:07 21,3 C 10,1 C 61 % 1016 hPa 0,0 l/m 0,6 km/h (0 Bft)
04.03.2007 18:10 21,4 C 9,2 C 62 % 1016 hPa 0,0 l/m 0,1 km/h (0 Bft)
04.03.2007 18:13 21,4 C 8,8 C 64 % 1016 hPa 0,0 l/m 0,4 km/h (0 Bft)
04.03.2007 18:15 21,4 C 8,6 C 64 % 1015 hPa 0,0 l/m 0,0 km/h (0 Bft)
04.03.2007 18:18 21,3 C 8,0 C 66 % 1015 hPa 0,0 l/m 0,4 km/h (0 Bft)
04.03.2007 18:21 21,4 C 7,8 C 67 % 1015 hPa 0,0 l/m 0,4 km/h (0 Bft)
04.03.2007 18:24 21,4 C 7,6 C 67 % 1015 hPa 0,0 l/m 3,3 km/h (1 Bft)
04.03.2007 18:27 21,4 C 7,4 C 69 % 1015 hPa 0,0 l/m 1,8 km/h (1 Bft)
04.03.2007 18:30 21,4 C 7,2 C 69 % 1015 hPa 0,0 l/m 4,3 km/h (1 Bft)
04.03.2007 18:33 21,4 C 7,2 C 69 % 1015 hPa 0,0 l/m 3,4 km/h (1 Bft)
04.03.2007 18:36 21,5 C 7,1 C 69 % 1015 hPa 0,0 l/m 3,9 km/h (1 Bft)
04.03.2007 18:39 21,5 C 7,1 C 70 % 1015 hPa 0,0 l/m 0,0 km/h (0 Bft)
04.03.2007 18:42 21,5 C 6,9 C 71 % 1015 hPa 0,0 l/m 0,0 km/h (0 Bft)
04.03.2007 18:45 21,5 C 6,8 C 70 % 1015 hPa 0,0 l/m 0,1 km/h (0 Bft)
04.03.2007 18:48 21,5 C 6,7 C 70 % 1015 hPa 0,0 l/m 0,0 km/h (0 Bft)
04.03.2007 18:51 21,5 C 6,6 C 71 % 1015 hPa 0,0 l/m 0,0 km/h (0 Bft)
04.03.2007 18:54 21,5 C 6,4 C 71 % 1015 hPa 0,0 l/m 0,3 km/h (0 Bft)
04.03.2007 18:57 21,5 C 6,4 C 71 % 1015 hPa 0,0 l/m 0,2 km/h (0 Bft)
04.03.2007 19:00 21,6 C 6,4 C 71 % 1015 hPa 0,0 l/m 0,3 km/h (0 Bft)
04.03.2007 19:03 21,5 C 6,3 C 72 % 1015 hPa 0,0 l/m 1,2 km/h (1 Bft)
04.03.2007 19:06 21,5 C 6,2 C 72 % 1015 hPa 0,0 l/m 5,6 km/h (1 Bft)
04.03.2007 19:09 21,5 C 6,0 C 73 % 1015 hPa 0,0 l/m 6,1 km/h (2 Bft)
04.03.2007 19:12 21,5 C 5,8 C 73 % 1015 hPa 0,0 l/m 3,4 km/h (1 Bft)
04.03.2007 19:15 21,4 C 5,6 C 73 % 1015 hPa 0,0 l/m 3,3 km/h (1 Bft)
04.03.2007 19:18 21,4 C 5,6 C 74 % 1015 hPa 0,0 l/m 3,1 km/h (1 Bft)
04.03.2007 19:21 21,4 C 5,5 C 74 % 1015 hPa 0,0 l/m 0,0 km/h (0 Bft)
04.03.2007 19:24 21,4 C 5,5 C 74 % 1015 hPa 0,0 l/m 0,0 km/h (0 Bft)
04.03.2007 19:27 21,4 C 5,5 C 74 % 1015 hPa 0,0 l/m 3,2 km/h (1 Bft)
04.03.2007 19:30 21,4 C 5,5 C 74 % 1015 hPa 0,0 l/m 4,0 km/h (1 Bft)
04.03.2007 19:33 21,4 C 5,4 C 74 % 1015 hPa 0,0 l/m 3,3 km/h (1 Bft)
04.03.2007 19:36 21,4 C 5,4 C 74 % 1015 hPa 0,0 l/m 3,7 km/h (1 Bft)
04.03.2007 19:39 21,4 C 5,3 C 74 % 1015 hPa 0,0 l/m 5,4 km/h (1 Bft)
04.03.2007 19:42 21,4 C 5,3 C 74 % 1015 hPa 0,0 l/m 4,2 km/h (1 Bft)
04.03.2007 19:45 21,4 C 5,1 C 75 % 1015 hPa 0,0 l/m 4,9 km/h (1 Bft)
04.03.2007 19:48 21,4 C 4,9 C 75 % 1015 hPa 0,0 l/m 5,7 km/h (1 Bft)
04.03.2007 19:51 21,4 C 4,8 C 75 % 1015 hPa 0,0 l/m 3,2 km/h (1 Bft)
04.03.2007 19:54 21,4 C 4,8 C 75 % 1015 hPa 0,0 l/m 4,8 km/h (1 Bft)
04.03.2007 19:57 21,4 C 4,9 C 76 % 1015 hPa 0,0 l/m 5,8 km/h (2 Bft)
04.03.2007 20:00 21,4 C 4,8 C 75 % 1015 hPa 0,0 l/m 5,1 km/h (1 Bft)
04.03.2007 20:03 21,4 C 4,8 C 75 % 1015 hPa 0,0 l/m 5,1 km/h (1 Bft)
04.03.2007 20:06 21,5 C 4,8 C 76 % 1015 hPa 0,0 l/m 4,0 km/h (1 Bft)
04.03.2007 20:09 21,5 C 4,9 C 76 % 1015 hPa 0,0 l/m 10,1 km/h (2 Bft)
04.03.2007 20:12 21,5 C 4,9 C 76 % 1015 hPa 0,0 l/m 8,5 km/h (2 Bft)
04.03.2007 20:15 21,5 C 4,9 C 76 % 1015 hPa 0,0 l/m 8,5 km/h (2 Bft)
04.03.2007 20:18 21,5 C 4,9 C 76 % 1014 hPa 0,0 l/m 7,1 km/h (2 Bft)
04.03.2007 20:21 21,5 C 4,9 C 77 % 1014 hPa 0,0 l/m 8,3 km/h (2 Bft)
04.03.2007 20:24 21,5 C 4,9 C 78 % 1014 hPa 0,0 l/m 8,1 km/h (2 Bft)
04.03.2007 20:27 21,6 C 4,9 C 77 % 1014 hPa 0,0 l/m 9,2 km/h (2 Bft)
04.03.2007 20:30 21,6 C 4,8 C 78 % 1014 hPa 0,0 l/m 9,7 km/h (2 Bft)
04.03.2007 20:33 21,6 C 4,8 C 78 % 1014 hPa 0,0 l/m 7,8 km/h (2 Bft)
04.03.2007 20:36 21,6 C 4,7 C 78 % 1014 hPa 0,0 l/m 8,8 km/h (2 Bft)
04.03.2007 20:39 21,6 C 4,7 C 78 % 1014 hPa 0,0 l/m 8,1 km/h (2 Bft)
04.03.2007 20:42 21,6 C 4,7 C 77 % 1014 hPa 0,0 l/m 5,2 km/h (1 Bft)
04.03.2007 20:45 21,6 C 4,7 C 77 % 1014 hPa 0,0 l/m 7,6 km/h (2 Bft)
04.03.2007 20:48 21,6 C 4,6 C 78 % 1014 hPa 0,0 l/m 6,7 km/h (2 Bft)
04.03.2007 20:51 21,6 C 4,6 C 78 % 1014 hPa 0,0 l/m 5,7 km/h (1 Bft)
04.03.2007 20:54 21,6 C 4,6 C 77 % 1014 hPa 0,0 l/m 5,2 km/h (1 Bft)
04.03.2007 20:57 21,6 C 4,6 C 78 % 1014 hPa 0,0 l/m 4,0 km/h (1 Bft)
04.03.2007 21:00 21,6 C 4,6 C 77 % 1014 hPa 0,0 l/m 4,5 km/h (1 Bft)
04.03.2007 21:03 21,6 C 4,5 C 77 % 1014 hPa 0,0 l/m 5,6 km/h (1 Bft)
04.03.2007 21:06 21,7 C 4,4 C 77 % 1014 hPa 0,0 l/m 4,6 km/h (1 Bft)
04.03.2007 21:09 21,7 C 4,3 C 77 % 1014 hPa 0,0 l/m 3,4 km/h (1 Bft)
04.03.2007 21:12 21,7 C 4,3 C 77 % 1014 hPa 0,0 l/m 4,2 km/h (1 Bft)
04.03.2007 21:15 21,7 C 4,3 C 77 % 1014 hPa 0,0 l/m 4,7 km/h (1 Bft)
04.03.2007 21:18 21,7 C 4,5 C 77 % 1014 hPa 0,0 l/m 4,7 km/h (1 Bft)
04.03.2007 21:21 21,7 C 4,5 C 77 % 1014 hPa 0,0 l/m 5,6 km/h (1 Bft)
04.03.2007 21:24 21,7 C 4,5 C 77 % 1014 hPa 0,0 l/m 3,9 km/h (1 Bft)
04.03.2007 21:27 21,8 C 4,5 C 77 % 1014 hPa 0,0 l/m 4,8 km/h (1 Bft)
04.03.2007 21:30 21,7 C 4,5 C 77 % 1014 hPa 0,0 l/m 7,5 km/h (2 Bft)
04.03.2007 21:33 21,7 C 4,3 C 76 % 1014 hPa 0,0 l/m 4,5 km/h (1 Bft)
04.03.2007 21:36 21,8 C 4,1 C 77 % 1014 hPa 0,0 l/m 0,4 km/h (0 Bft)
04.03.2007 21:39 21,7 C 3,9 C 77 % 1014 hPa 0,0 l/m 0,1 km/h (0 Bft)
04.03.2007 21:42 21,8 C 3,9 C 77 % 1014 hPa 0,0 l/m 0,3 km/h (0 Bft)
04.03.2007 21:45 21,8 C 3,9 C 77 % 1014 hPa 0,0 l/m 0,3 km/h (0 Bft)
04.03.2007 21:48 21,8 C 3,9 C 77 % 1014 hPa 0,0 l/m 1,7 km/h (1 Bft)
04.03.2007 21:51 21,8 C 3,9 C 77 % 1014 hPa 0,0 l/m 5,6 km/h (1 Bft)
04.03.2007 21:54 21,8 C 4,1 C 77 % 1014 hPa 0,0 l/m 3,4 km/h (1 Bft)
04.03.2007 21:57 21,8 C 4,1 C 78 % 1014 hPa 0,0 l/m 4,5 km/h (1 Bft)
04.03.2007 22:00 21,8 C 4,1 C 77 % 1014 hPa 0,0 l/m 4,6 km/h (1 Bft)
04.03.2007 22:03 21,8 C 4,2 C 77 % 1014 hPa 0,0 l/m 4,2 km/h (1 Bft)
04.03.2007 22:06 21,8 C 4,2 C 77 % 1014 hPa 0,0 l/m 5,6 km/h (1 Bft)
04.03.2007 22:09 21,8 C 4,2 C 77 % 1014 hPa 0,0 l/m 7,0 km/h (2 Bft)
04.03.2007 22:12 21,8 C 4,1 C 77 % 1014 hPa 0,0 l/m 5,7 km/h (1 Bft)
04.03.2007 22:15 21,8 C 4,1 C 77 % 1014 hPa 0,0 l/m 5,5 km/h (1 Bft)
04.03.2007 22:18 21,8 C 4,1 C 77 % 1014 hPa 0,0 l/m 5,5 km/h (1 Bft)
04.03.2007 22:21 21,8 C 4,1 C 77 % 1014 hPa 0,0 l/m 4,8 km/h (1 Bft)
04.03.2007 22:24 21,8 C 4,1 C 77 % 1014 hPa 0,0 l/m 6,4 km/h (2 Bft)
04.03.2007 22:27 21,7 C 4,2 C 77 % 1014 hPa 0,0 l/m 8,9 km/h (2 Bft)
04.03.2007 22:30 21,7 C 4,2 C 77 % 1014 hPa 0,0 l/m 6,6 km/h (2 Bft)
04.03.2007 22:33 21,7 C 4,2 C 77 % 1014 hPa 0,0 l/m 6,9 km/h (2 Bft)
04.03.2007 22:36 21,7 C 4,1 C 77 % 1014 hPa 0,0 l/m 3,9 km/h (1 Bft)
04.03.2007 22:39 21,6 C 4,1 C 77 % 1014 hPa 0,0 l/m 7,1 km/h (2 Bft)
04.03.2007 22:42 21,6 C 4,1 C 77 % 1014 hPa 0,0 l/m 6,5 km/h (2 Bft)
04.03.2007 22:45 21,6 C 4,1 C 77 % 1013 hPa 0,0 l/m 6,6 km/h (2 Bft)
04.03.2007 22:48 21,6 C 4,1 C 76 % 1013 hPa 0,0 l/m 8,3 km/h (2 Bft)
04.03.2007 22:51 21,6 C 4,1 C 77 % 1013 hPa 0,0 l/m 5,9 km/h (2 Bft)
04.03.2007 22:54 21,6 C 4,2 C 77 % 1013 hPa 0,0 l/m 7,2 km/h (2 Bft)
04.03.2007 22:57 21,6 C 4,1 C 77 % 1013 hPa 0,0 l/m 7,0 km/h (2 Bft)
04.03.2007 23:00 21,6 C 4,1 C 76 % 1013 hPa 0,0 l/m 9,2 km/h (2 Bft)
04.03.2007 23:03 21,6 C 4,1 C 76 % 1013 hPa 0,0 l/m 6,8 km/h (2 Bft)
04.03.2007 23:06 21,6 C 4,1 C 76 % 1013 hPa 0,0 l/m 6,3 km/h (2 Bft)
04.03.2007 23:09 21,6 C 4,1 C 75 % 1013 hPa 0,0 l/m 1,3 km/h (1 Bft)
04.03.2007 23:12 21,6 C 4,1 C 75 % 1013 hPa 0,0 l/m 0,4 km/h (0 Bft)
04.03.2007 23:15 21,6 C 3,9 C 76 % 1013 hPa 0,0 l/m 0,1 km/h (0 Bft)
04.03.2007 23:18 21,6 C 3,9 C 76 % 1013 hPa 0,0 l/m 0,7 km/h (0 Bft)
04.03.2007 23:21 21,6 C 3,9 C 76 % 1013 hPa 0,0 l/m 0,0 km/h (0 Bft)
04.03.2007 23:24 21,6 C 3,9 C 76 % 1013 hPa 0,0 l/m 0,1 km/h (0 Bft)
04.03.2007 23:27 21,6 C 3,8 C 76 % 1013 hPa 0,0 l/m 0,0 km/h (0 Bft)
04.03.2007 23:30 21,6 C 3,7 C 76 % 1013 hPa 0,0 l/m 0,3 km/h (0 Bft)
04.03.2007 23:33 21,6 C 3,7 C 76 % 1013 hPa 0,0 l/m 0,0 km/h (0 Bft)
04.03.2007 23:36 21,6 C 3,6 C 76 % 1013 hPa 0,0 l/m 0,1 km/h (0 Bft)
04.03.2007 23:39 21,6 C 3,6 C 76 % 1013 hPa 0,0 l/m 0,1 km/h (0 Bft)
04.03.2007 23:42 21,6 C 3,6 C 76 % 1013 hPa 0,0 l/m 7,0 km/h (2 Bft)
04.03.2007 23:45 21,6 C 3,4 C 77 % 1013 hPa 0,0 l/m 6,1 km/h (2 Bft)
04.03.2007 23:48 21,6 C 3,3 C 78 % 1013 hPa 0,0 l/m 0,3 km/h (0 Bft)
04.03.2007 23:51 21,6 C 3,3 C 78 % 1013 hPa 0,0 l/m 0,3 km/h (0 Bft)
04.03.2007 23:54 21,6 C 3,2 C 78 % 1013 hPa 0,0 l/m 0,1 km/h (0 Bft)
04.03.2007 23:57 21,6 C 3,2 C 78 % 1013 hPa 0,0 l/m 1,0 km/h (0 Bft)
_ Min-Zeit 15:38 07:05 13:08 00:02 - 08:02
Minimum _ 17,6 C 1,8 C 57 % 1010 hPa - 0,0 km/h (0 Bft)
_ Max-Zeit 10:53 17:49 00:29 08:50 00:02 00:59
Maximum _ 22,5 C 11,6 C 89 % 1018 hPa 0,3 l/m 52,0 km/h
N-NO (7 Bft)
Durchschnitt _ 20,9 C 6,0 C 73 % 1015 hPa #0,7 l/m 11,3 km/h (2 Bft)